Location: Betz
(49.1556°N, 2.9558°E)
Time: 22:15:54
(UTC+00:00)

Cosmos 1939 Rocket - Pass Details

Date: 18 September 2019
Orbit: 534 x 583 km, 97.4° (Epoch: 15 October)

Event Time Altitude Azimuth Distance (km) Brightness Sun altitude
Rises 18:41:30 0° 168° (SSE) 2,679 6.1 -8.3°
Reaches altitude 10° 18:43:37 10° 170° (S) 1,789 5.2 -8.6°
Maximum altitude 18:47:28 79° 256° (WSW) 551 2.9 -9.2°
Drops below altitude 10° 18:51:22 10° 345° (NNW) 1,801 5.9 -9.8°
Sets 18:53:30 0° 346° (NNW) 2,699 6.8 -10.2°
